User: anonymous   Login
Location: Lake Runnemede Observatory
(43.4843°N, 72.3851°W)
Time: 06:54:01
(UTC-05:00)
Language:

SPOT 5 - Orbit

View from above orbital plane
View from above orbital plane
View from above satellite
View from above satellite

Ground track
Ground track

The orbit data is extracted from the following two-line orbital elements,

1 27421U 02021A   15064.18583775  .00000029  00000-0  33403-4 0  9999
2 27421 098.5271 123.5398 0001329 100.4153 351.0723 14.20112873665366
Epoch (UTC): 05 March 2015 04:27:36
Eccentricity: 0.0001329
inclination: 98.5271°
perigee height: 824 km
apogee height: 826 km
right ascension of ascending node: 123.5398°
argument of perigee: 100.4153°
revolutions per day: 14.20112873
mean anomaly at epoch: 351.0723°
orbit number at epoch: 66536

The dashed part of the orbit path shows where the satellite is in the earth's shadow,  

DLR